OPS 4682 DEB, 38391

Orbit data source: Space-Track

OPS 4682 DEB, 38391 is space debris in LEO originally from a launch on Sat, 03 Apr 1965 UTC launched from the Air Force Western Test Range (AFWTR). Debris objects in space refer to the collection of defunct objects orbiting the Earth. Examples of debris include non-operational satellites, rocket bodies, and fragments generated from explosions, collisions, or faulty payload assembly.

Loading next visibility...
Identifier
38391, 1965-027CU
Orbit
LEO
Country
Flag of USUS
Related business
Manufacturer
Unknown
Mission
Spacecraft
Bus & Motor
Unknown
Mass
Unknown
Launch date (UTC)
1965-04-03 (61 years ago)
Launch vehicle
Unknown
Launch site
Air Force Western Test Range (AFWTR)
Object type
Payload
Rocket body
Debris
Shape & HBR
Unknown shape, 0.1 m
Radar Cross Section
Small (<0.1 m²)

Expand to show TLE details & history
Last TLE update: 1 day ago

TLE from 1 day ago
0 OPS 4682 DEB
1 38391U 65027CU  26035.34263977  .00000081  00000-0  24707-3 0  9993
2 38391  90.2245   5.1528 0044662  45.2108 315.2631 12.98286845582538
Epoch: 2026-02-04T08:13Z
TLE epoch observation values (Epoch: 2026-02-04T08:13:24.076Z)
Latitude
-0.00005°
Longitude
107.29189°
Altitude
1,247.498 km
Speed
7.243 km/s
True Right ascension
00h 20m 36s
True Declination
0° 00' 00"
Sunlit
Object was in daylight at epoch
Visualization orbit readout
Latitude
Unknown
Longitude
Unknown
Altitude
Unknown
Speed
Unknown
Apparent Right ascension
Unknown
Apparent Declination
Unknown
Sunlit
N/A
Visualization observer readout
Local Sidereal Time
15:20:46
Azimuth
Unknown
Elevation
Unknown
Doppler factor
Unknown
Orbital elements
Apogee altitude
1,300.076 km
Perigee altitude
1,231.796 km
Semi-major axis
7,644.073 km
Eccentricity
0.00447
Inclination
90.2245°
RAAN
5.1528°
Arg. of periapsis
45.2108°
True anomaly
314.90144°
Mean anomaly
315.2631°
Eccentric anomaly
315.08242°
Mean motion
3.24755 °/min
Orbital period
110.85 mins
BSTAR
0.00024707
Loading maneuver chart data...
Computing Atmospheric mass density...
Loading historical data...
Loading historical data...
Loading historical data...
Loading historical data...
Loading historical data...
Loading historical data...
Loading historical data...

Documentation

Showing up to 5 results
|